RH
48 46 53 43 40 39 38 49 42 39 49 48 56 59 55 61 61 50 48 58 49 37 50 52 48 52 47 43 43 42 44 40 35 32 29 30 29 29 30 29 29 29 28 27 28 34 42 38 27 23 24 22 22 26 27 27 27 25 25 26 28 31 32 34 37 43 42 43 54 56 59 61 51 48 42 37 56 74 75 73 75 77 78 75 64 50
48 43 42 35 35 39 42 54 48 46 51 46 50 53 58 65 55 41 39 50 47 39 52 55 47 48 46 44 43 43 45 39 35 32 30 31 29 29 30 28 31 32 32 35 36 41 44 33 25 25 24 22 23 26 28 29 25 25 26 27 30 32 32 33 38 43 41 44 52 52 56 58 52 53 47 47 65 81 85 82 79 82 84 81 66 48
46 37 37 35 41 50 59 68 54 50 58 56 56 52 52 59 53 49 49 49 45 39 52 60 50 49 49 43 42 44 45 40 36 31 28 29 29 30 30 30 33 36 43 47 46 44 39 31 26 25 24 22 23 27 30 27 23 25 27 28 30 31 33 34 39 43 41 44 48 46 49 50 50 55 58 63 67 69 82 90 86 87 88 83 71 53
39 28 43 51 45 46 54 65 59 56 63 58 54 47 45 49 45 48 53 51 48 44 54 59 50 48 48 41 40 44 45 44 39 35 33 31 30 30 29 32 34 37 48 54 53 48 38 30 27 25 23 21 24 30 30 24 23 25 26 29 30 31 36 38 39 41 41 43 44 42 44 44 47 55 61 66 63 59 72 82 83 87 90 87 79 65
31 22 48 65 60 53 45 54 59 48 53 63 57 41 36 43 43 46 52 54 57 56 51 47 46 49 49 44 41 42 45 43 40 39 38 36 36 36 35 38 41 43 50 54 56 52 39 29 27 25 22 21 27 31 28 23 23 25 26 29 32 34 37 39 40 39 38 38 37 39 45 45 49 53 53 56 58 58 65 70 68 72 81 85 83 75
32 30 43 52 61 66 47 42 45 36 42 58 59 43 32 36 43 51 56 57 59 55 43 41 50 54 55 52 44 42 44 41 40 40 37 37 38 40 42 45 48 51 54 55 56 49 36 28 28 25 21 23 29 29 25 23 23 22 25 29 33 36 38 39 39 37 35 32 33 42 48 50 52 51 48 47 47 47 54 63 60 58 65 71 75 76
36 44 51 49 58 66 55 40 39 51 51 40 42 48 41 39 45 51 52 53 57 50 39 43 51 53 54 50 47 49 47 43 44 42 39 38 38 40 42 43 48 52 53 54 55 46 33 28 28 24 22 26 29 28 24 22 21 22 27 32 34 36 37 38 38 36 34 31 37 45 47 49 49 46 45 43 40 39 43 48 48 50 55 59 65 70
36 48 54 57 65 60 50 37 37 59 54 33 39 46 44 43 47 53 50 52 62 55 51 53 47 50 54 49 51 53 48 46 45 42 41 39 37 38 39 41 45 50 51 52 53 47 35 30 28 24 24 28 27 24 22 21 21 23 28 32 34 34 35 35 37 37 35 36 41 44 44 46 44 41 43 40 38 41 40 38 37 41 47 50 54 58
35 38 38 46 59 49 33 27 37 48 37 40 53 45 48 54 51 58 57 62 68 53 54 57 39 44 55 48 52 52 45 47 45 40 40 38 38 37 38 40 44 51 54 53 53 47 36 30 27 24 25 26 24 21 21 21 21 23 27 31 32 33 35 37 39 40 39 39 42 43 42 41 39 39 40 37 37 38 36 37 38 39 42 41 42 48
34 37 43 44 40 33 29 35 48 44 31 47 56 44 57 69 65 67 63 69 74 55 53 53 34 43 54 45 46 48 47 50 45 42 41 39 39 38 37 39 44 53 58 57 53 43 33 28 25 25 25 23 21 22 21 21 22 24 26 30 32 35 39 41 42 42 42 41 41 40 39 37 36 35 36 38 40 38 36 40 41 40 41 41 43 46
50 53 56 49 34 30 34 41 53 51 42 48 51 46 55 64 68 77 77 70 63 60 66 55 35 41 52 48 46 47 55 56 45 44 47 45 43 40 40 41 46 55 58 58 54 41 32 28 25 25 23 21 21 22 21 21 22 25 29 33 37 40 41 39 42 44 42 40 37 36 35 34 34 34 38 41 40 41 42 43 43 44 46 48 50 50
60 53 49 51 47 44 38 37 51 63 60 51 48 45 46 50 52 67 84 71 50 57 68 53 39 43 50 51 47 48 59 61 49 44 45 47 47 46 46 47 52 57 58 57 55 45 36 29 26 24 21 22 22 21 21 22 26 30 33 36 36 34 30 30 40 44 39 36 34 33 34 33 35 38 39 40 41 43 45 45 47 50 52 53 51 50
62 56 51 51 46 43 36 34 46 60 61 51 48 52 59 64 55 60 78 71 54 55 54 44 40 43 46 43 40 44 48 53 54 49 46 49 50 52 54 55 58 61 60 60 56 51 44 32 25 23 22 23 22 21 23 26 31 33 32 30 26 25 27 32 41 42 36 34 34 34 34 35 38 40 39 40 42 44 47 50 52 52 52 52 50 50
58 59 53 43 38 40 36 30 32 40 45 42 46 57 66 65 56 61 71 65 60 57 48 43 44 48 52 44 41 42 39 45 53 50 51 53 51 54 58 61 64 63 63 62 55 49 45 34 24 22 23 23 22 23 26 29 31 29 26 23 23 27 34 39 42 39 36 36 35 36 37 37 38 40 42 44 47 49 51 51 50 50 50 50 50 51
40 41 42 37 35 38 34 32 37 40 42 44 50 55 57 53 50 60 66 59 60 63 52 42 50 63 58 44 45 49 48 53 56 53 58 60 59 62 62 64 66 63 64 60 48 43 39 29 23 22 22 22 23 25 26 27 26 24 23 22 25 32 36 39 39 38 37 37 37 39 39 39 41 44 47 50 51 52 50 48 49 50 51 51 54 55
37 33 42 42 36 38 35 39 51 47 39 47 56 53 49 54 57 62 69 62 57 70 73 57 62 71 53 40 49 55 54 55 55 58 63 64 66 67 64 64 63 61 63 55 42 40 36 26 21 21 22 22 24 25 25 25 24 22 23 23 27 33 36 38 38 38 38 38 39 40 40 41 43 46 50 50 51 49 48 49 50 50 50 51 54 54
36 37 49 45 35 38 36 38 50 45 35 42 52 48 45 54 64 60 63 68 61 68 76 63 58 59 48 47 55 53 48 45 49 55 59 62 65 66 65 63 61 61 60 50 40 41 36 26 22 21 22 23 23 25 25 24 23 22 22 25 29 34 36 38 38 38 40 40 41 41 42 44 44 48 51 49 49 49 48 48 46 45 46 47 49 48
38 46 57 49 33 38 47 44 46 47 44 42 44 49 49 52 67 63 57 74 79 74 71 63 61 58 51 55 57 49 46 43 45 51 54 59 62 65 65 60 59 60 54 45 40 40 34 25 23 21 21 23 23 24 24 23 22 22 22 26 31 35 38 39 39 40 40 41 43 43 45 46 47 50 51 49 49 48 46 45 44 45 45 47 49 50
45 47 56 55 40 44 54 46 43 45 45 44 41 45 45 47 67 68 54 64 75 74 74 72 71 63 57 67 60 44 44 43 43 48 52 55 57 60 62 57 57 56 47 41 39 38 35 28 23 21 21 23 23 23 24 22 22 22 23 27 32 36 38 39 40 40 41 42 43 44 46 47 48 50 49 48 48 46 45 45 45 46 47 49 52 54
48 41 44 52 45 43 45 43 49 48 42 48 48 45 49 56 71 67 53 64 72 71 78 79 74 59 58 75 63 37 38 42 41 47 49 50 51 53 54 51 51 49 41 36 35 35 34 27 21 19 20 24 24 23 23 22 23 24 25 28 33 37 39 40 41 41 42 43 44 45 46 47 49 49 49 48 47 46 46 45 46 49 51 52 54 57
49 38 43 57 53 46 43 43 50 49 44 52 53 52 55 55 63 60 54 69 74 70 77 83 76 54 43 56 51 34 38 41 42 47 45 46 48 47 48 45 43 43 39 36 35 33 30 25 19 19 22 24 23 23 22 22 24 25 27 30 33 37 39 40 41 42 43 44 45 46 47 49 50 50 49 49 47 47 46 46 49 51 53 55 57 60
45 41 52 60 50 46 52 49 46 48 54 59 60 65 64 57 60 62 62 73 73 69 80 84 76 55 37 41 40 35 38 40 44 47 41 43 45 43 44 43 41 40 37 37 36 30 27 23 19 20 24 24 23 22 22 23 26 27 28 31 34 37 40 41 42 43 44 45 45 48 49 51 51 50 50 48 46 47 49 51 52 53 55 58 60 63
50 55 59 55 48 47 50 47 47 53 54 52 53 59 67 69 65 61 70 79 73 71 80 84 80 58 38 40 41 37 40 40 43 46 41 40 42 42 43 43 42 39 36 37 34 27 25 21 18 22 25 24 23 22 23 25 27 28 30 33 36 38 40 42 44 44 45 45 47 50 52 52 52 51 50 48 47 49 52 54 55 57 60 62 64 66
51 59 55 54 58 57 53 49 49 51 43 39 48 55 60 69 69 70 82 82 72 72 72 78 83 59 37 43 43 38 42 43 44 47 43 41 42 43 44 43 41 37 36 37 31 24 22 19 20 25 25 24 23 22 24 26 28 30 32 34 37 39 41 43 44 44 45 47 49 52 53 53 53 52 49 49 50 53 56 57 59 62 65 66 67 66
43 53 52 53 56 58 66 66 58 52 41 37 53 61 62 71 73 73 77 71 67 70 68 77 84 56 35 45 42 36 42 41 43 46 44 44 43 42 44 43 38 35 35 35 28 22 22 21 24 26 24 24 23 23 26 27 29 31 33 36 38 39 42 43 44 45 46 48 51 54 55 55 54 53 51 52 54 56 59 61 64 66 68 68 68 67
45 52 49 46 46 48 56 59 59 63 56 47 53 57 59 68 65 57 64 68 68 70 67 74 74 45 29 38 37 37 44 41 40 45 45 46 43 42 44 42 37 34 33 32 27 23 22 22 23 24 23 24 23 25 27 28 31 33 34 37 39 40 44 44 45 46 47 50 54 55 56 56 54 54 54 56 58 60 62 65 68 70 70 69 69 69
62 62 51 49 52 46 41 42 50 58 54 47 50 55 58 63 61 62 74 76 73 78 73 62 56 44 35 36 35 37 41 39 39 40 42 45 44 44 46 43 38 34 31 31 27 23 23 22 23 24 23 24 24 26 28 29 32 33 35 37 39 42 45 46 46 47 48 53 56 57 57 55 55 55 56 59 62 64 66 68 70 71 70 70 72 73
63 58 55 57 54 47 43 43 46 49 47 45 49 56 62 66 64 63 68 65 64 74 68 49 49 54 46 37 36 38 36 36 38 37 38 42 43 45 45 44 42 36 31 31 28 25 24 22 23 25 24 24 26 27 29 31 32 34 36 38 40 44 47 46 47 48 51 56 58 58 58 55 56 57 59 62 66 67 70 72 72 73 72 73 76 79
60 57 65 65 57 54 53 51 50 49 49 49 52 54 58 66 70 61 55 57 59 59 51 43 49 55 46 37 36 36 35 36 37 37 40 44 45 47 45 42 42 40 34 31 27 26 25 22 24 26 25 26 27 28 30 32 33 35 36 38 41 45 47 47 49 50 54 58 59 59 58 56 58 60 63 66 68 70 72 73 74 74 75 79 82 83
60 65 76 70 62 57 50 50 55 55 56 55 55 55 53 59 68 63 54 54 55 52 45 41 46 48 41 37 37 36 35 38 40 42 46 46 45 48 48 45 43 42 38 33 29 27 26 24 25 26 26 28 28 29 31 32 34 35 36 38 41 45 48 48 50 53 56 58 59 59 58 58 60 63 66 69 70 73 74 74 76 79 81 85 86 86
48 68 84 73 63 59 53 56 58 56 62 60 50 48 52 56 63 65 61 59 59 59 52 48 56 57 43 38 41 41 40 43 45 45 45 43 43 46 50 50 48 46 42 36 32 30 27 27 28 28 30 30 29 29 31 31 33 35 36 39 42 46 49 50 52 55 56 58 60 60 59 60 63 66 69 71 73 75 76 77 80 84 87 89 88 88
48 68 82 68 59 60 59 61 56 50 56 59 52 50 53 59 66 67 64 64 62 60 58 60 65 58 42 39 44 45 45 46 44 41 39 39 42 47 51 51 49 49 46 40 36 33 30 29 30 31 31 31 29 29 30 31 33 36 37 39 43 47 49 51 54 56 57 60 60 60 61 63 66 69 71 74 76 77 79 82 84 88 91 92 92 93
60 64 69 61 59 64 61 57 55 51 52 53 56 59 55 55 63 62 56 57 56 51 53 59 55 43 36 40 42 40 40 40 37 35 36 38 40 45 49 49 47 47 46 42 39 36 33 31 31 31 30 28 28 28 28 29 32 35 36 38 42 47 50 52 55 57 59 62 61 62 64 65 68 72 74 76 78 79 82 85 87 91 94 95 96 99
74 63 62 59 60 73 75 61 50 50 53 52 54 60 54 44 48 51 46 46 49 47 47 49 44 39 39 40 39 38 36 35 35 35 36 39 41 43 45 45 45 46 45 42 39 37 36 33 30 29 27 25 25 25 26 29 32 33 35 38 43 47 50 52 56 58 61 63 63 64 66 67 71 74 77 78 80 81 84 88 91 94 95 98 100 102
77 63 64 63 64 74 76 63 50 50 56 52 49 54 51 41 42 46 42 40 43 46 47 48 45 42 41 38 37 38 36 36 40 41 40 41 42 43 43 41 41 44 43 39 38 38 36 33 32 31 28 24 24 26 28 30 33 35 37 41 45 48 51 53 56 59 62 64 65 66 67 70 72 75 78 80 81 82 84 90 95 95 94 98 100 101
79 71 68 68 70 68 64 60 53 47 47 42 38 42 44 40 39 41 43 41 39 41 45 46 44 42 39 39 38 36 40 46 47 43 39 38 39 42 42 39 38 39 39 38 38 37 35 31 29 28 25 24 24 26 29 30 32 36 40 43 46 49 51 54 57 61 64 65 67 68 69 72 74 76 80 81 81 82 85 91 95 91 91 96 97 99
71 72 64 59 67 66 66 73 65 48 43 43 40 38 38 36 35 40 47 42 33 37 42 41 41 41 39 39 37 38 45 50 46 38 34 34 36 39 39 38 36 36 37 36 35 34 31 27 24 22 21 23 24 26 28 30 33 36 40 43 47 49 52 56 59 62 65 67 69 70 70 73 75 78 82 82 79 80 87 92 90 85 87 95 98 99
59 66 59 52 67 74 68 74 76 63 54 52 47 41 40 44 45 45 48 44 36 38 41 41 42 42 39 37 37 40 47 49 44 37 32 34 39 40 40 39 37 35 35 33 31 31 28 24 22 21 21 23 26 25 26 31 34 37 41 45 48 51 54 57 59 62 66 68 70 71 72 74 77 79 83 81 76 78 85 87 83 80 85 95 101 100
63 77 74 57 68 78 65 65 76 68 52 48 46 40 42 52 52 47 51 57 55 50 47 46 44 40 38 37 38 44 51 52 47 37 29 33 40 40 39 37 34 32 31 30 29 27 24 22 21 22 24 25 26 26 28 32 35 38 44 47 49 52 56 58 59 61 64 69 71 72 74 75 77 81 81 78 76 79 80 78 74 76 83 92 100 101
74 82 81 69 72 79 71 73 81 65 46 45 45 42 49 55 49 49 59 60 50 42 41 43 42 38 38 40 41 48 53 51 45 36 29 32 35 34 34 32 30 30 27 26 26 24 22 23 23 25 28 27 25 26 29 34 37 40 45 47 50 55 57 55 55 57 61 68 72 73 75 77 79 82 80 78 79 77 72 70 72 78 85 92 97 100
86 84 79 77 84 85 77 79 81 66 53 57 57 50 52 52 46 51 57 45 31 30 33 36 39 38 38 41 44 46 45 41 38 34 30 32 33 32 31 28 26 27 25 24 24 23 23 25 24 24 26 23 23 27 31 35 39 41 44 49 54 55 51 48 51 55 62 71 74 75 77 79 81 82 78 77 78 73 68 69 73 80 88 94 96 99
78 84 81 81 85 86 85 85 82 67 54 54 55 48 45 46 46 46 41 30 28 34 34 34 37 38 37 40 41 41 39 37 36 35 34 35 35 35 34 30 25 24 24 24 24 24 26 28 27 27 26 23 25 29 32 36 40 40 45 54 54 47 44 47 51 56 65 74 76 77 78 80 82 82 78 75 74 71 68 70 76 84 91 96 98 100
62 67 79 89 84 77 85 87 74 60 52 45 42 42 42 41 39 34 31 31 33 36 36 37 38 38 38 40 39 39 39 38 37 38 38 36 36 37 37 35 29 25 25 25 26 27 28 29 31 31 28 27 28 30 33 37 39 42 49 52 43 37 42 49 51 58 70 77 78 78 79 82 84 81 77 73 71 70 71 74 80 88 92 96 99 102
59 51 63 78 70 60 72 77 57 47 54 50 39 37 38 34 32 32 35 38 37 36 39 40 39 38 38 40 41 40 41 41 40 40 40 39 38 38 39 39 35 30 28 26 26 29 30 30 32 31 31 32 31 30 34 35 37 47 52 44 34 37 48 51 53 64 75 78 79 80 81 83 84 80 76 71 69 71 76 80 87 91 92 96 100 104
54 51 53 59 58 53 56 59 48 38 45 48 41 37 35 31 33 37 38 40 40 39 41 41 40 40 39 39 41 42 43 44 43 42 42 42 41 39 40 42 40 34 31 28 27 29 32 32 32 32 34 35 32 32 35 33 37 48 49 37 33 43 50 51 57 70 78 80 82 82 82 85 86 82 76 70 68 74 80 86 93 94 92 96 100 104
52 52 48 48 57 56 44 41 43 35 32 36 36 38 39 36 38 40 40 42 43 40 41 41 40 40 39 40 43 45 46 46 45 45 45 44 42 42 42 44 44 39 34 32 29 29 33 36 36 36 38 38 36 35 36 35 36 41 38 33 39 46 48 51 61 73 80 83 84 84 84 87 88 85 78 70 69 77 85 91 98 97 93 96 101 103
56 43 39 41 49 51 41 38 40 33 31 34 33 35 39 38 38 39 40 42 42 41 42 42 40 41 42 43 46 49 49 49 49 49 48 46 47 48 47 47 48 44 38 36 33 31 34 39 42 42 43 43 40 38 39 38 36 34 32 36 44 47 49 54 63 73 82 85 85 86 88 89 91 87 79 71 72 83 91 96 99 98 94 95 98 102
48 34 38 43 43 41 39 38 37 34 35 38 37 38 39 38 39 41 41 42 43 42 42 42 42 45 47 47 50 52 52 52 52 51 52 52 53 53 51 50 49 47 43 40 36 33 36 42 45 46 46 46 42 40 41 40 36 34 36 41 46 49 52 58 65 74 84 86 86 88 90 91 93 90 80 73 79 91 96 93 90 91 91 89 91 96
40 35 43 46 42 45 45 40 39 42 41 38 38 40 40 40 43 44 42 43 44 44 45 46 46 48 51 51 53 54 55 55 55 54 56 58 58 56 55 53 51 50 48 44 39 36 38 41 44 46 47 45 42 42 45 42 37 37 39 43 48 52 56 60 67 78 86 87 88 91 92 93 95 91 81 78 86 93 90 83 82 85 83 79 82 90
40 38 49 55 56 57 52 41 42 49 48 43 41 42 41 43 46 46 46 47 48 47 49 51 51 52 54 55 55 58 60 59 58 59 62 64 62 60 58 56 55 55 53 50 45 40 39 40 43 45 46 44 42 44 47 44 40 40 42 44 48 54 58 61 70 83 91 92 92 93 94 96 97 92 85 84 91 93 86 80 85 92 90 85 86 93
41 36 44 53 57 55 47 41 45 51 50 45 43 42 44 45 47 48 49 49 50 50 51 55 59 60 60 59 58 60 64 63 62 64 68 67 64 63 62 61 62 61 59 55 51 47 45 43 44 46 47 45 44 46 48 47 45 44 46 47 49 54 59 63 73 86 94 96 96 95 96 99 98 92 88 89 93 95 92 86 84 86 91 98 101 99
Wind_Speed
3 5 4 1 3 4 4 5 3 1 4 5 3 2 4 4 5 6 6 6 3 3 5 4 4 5 7 8 7 5 6 6 7 7 7 7 7 7 7 7 8 7 10 15 15 10 9 8 6 5 6 8 8 5 5 7 8 10 12 13 14 14 16 17 16 16 17 17 16 16 17 18 20 21 22 22 22 22 21 18 18 19 20 21 22 24
5 6 1 5 7 4 2 3 3 3 3 4 3 2 3 3 6 7 4 5 4 4 5 4 2 7 7 8 7 5 7 8 9 9 9 9 8 7 8 9 9 7 8 11 12 11 9 8 6 6 8 8 7 5 6 7 7 9 11 12 13 15 16 16 14 14 15 14 14 15 15 17 19 19 19 19 19 20 19 16 16 17 16 17 17 22
6 3 5 7 4 2 4 5 5 3 4 4 2 1 3 3 4 7 3 3 4 3 5 6 4 8 7 7 7 5 7 7 7 9 9 10 10 8 8 9 8 7 7 8 11 11 9 8 8 8 8 7 7 5 5 5 7 9 11 13 14 15 15 14 12 12 14 13 13 15 15 17 18 17 16 15 15 16 16 16 15 16 15 13 12 16
3 2 6 4 2 5 4 6 7 5 3 3 3 1 4 3 1 4 4 5 4 2 4 5 6 6 3 3 6 6 6 4 4 8 7 8 10 9 10 9 8 9 9 8 9 10 9 8 9 9 8 7 5 4 4 5 9 10 12 13 13 14 13 12 11 12 13 13 14 15 15 16 16 15 14 14 16 16 16 16 15 16 18 14 10 10
1 3 2 5 5 6 3 5 6 4 4 1 3 3 4 4 3 6 5 7 6 2 2 3 6 6 1 2 7 5 4 5 4 6 7 8 8 8 9 9 9 10 9 8 7 9 9 9 10 10 8 6 3 4 4 7 10 11 12 13 12 12 12 11 12 13 13 14 15 16 15 15 14 14 15 16 18 19 17 18 17 17 18 16 12 10
0 2 1 4 6 6 4 1 1 3 2 4 3 5 6 6 6 6 4 5 5 3 2 3 4 5 3 3 8 4 4 6 4 5 9 8 8 8 8 8 9 9 8 8 8 9 10 10 12 11 7 5 5 5 5 8 10 12 13 12 11 11 11 12 13 13 13 14 14 14 12 13 12 12 14 16 18 20 19 18 19 19 17 16 14 11
1 3 3 3 4 7 4 0 2 4 4 2 3 5 5 4 5 6 2 1 1 2 3 3 3 5 5 4 7 3 5 8 6 8 10 8 8 9 9 8 9 9 7 7 8 9 10 11 13 12 8 6 6 5 6 9 11 12 11 11 11 11 12 14 15 13 13 13 12 10 9 8 9 10 12 15 18 19 19 18 19 19 17 15 15 14
1 3 6 5 5 5 3 2 2 5 4 3 2 3 2 5 6 5 3 3 2 2 4 2 4 3 5 4 4 2 4 8 9 12 12 10 11 11 10 10 10 10 8 6 6 8 11 13 14 12 8 6 5 5 7 10 12 11 11 11 11 12 14 16 16 14 13 12 10 9 8 7 8 10 11 14 17 17 17 19 19 18 16 15 14 15
1 1 1 4 5 4 0 2 4 5 2 6 5 2 4 5 4 3 5 4 1 2 4 4 2 1 6 5 3 3 2 8 11 14 14 12 13 12 12 13 12 10 8 7 6 8 12 14 13 11 8 6 5 6 9 11 12 12 11 11 12 14 15 16 15 14 14 12 10 9 9 9 10 11 12 14 14 15 16 17 18 17 16 16 16 15
1 1 3 5 4 0 4 5 5 5 3 6 5 4 3 2 1 2 4 3 2 3 3 5 2 1 5 5 2 2 2 7 10 11 11 11 12 12 13 13 11 8 6 7 8 12 13 11 10 10 7 6 7 8 10 11 12 12 11 11 13 14 15 15 16 15 13 11 10 10 10 11 12 13 14 13 12 14 15 15 15 16 16 16 15 15
2 2 2 3 2 3 3 4 4 6 5 5 6 5 4 4 3 2 2 3 4 3 5 5 2 3 3 6 3 3 5 7 7 7 7 7 9 11 11 11 10 8 7 6 8 11 10 8 9 9 7 8 8 8 10 11 11 10 10 10 11 12 13 16 16 13 10 9 10 11 11 12 13 12 12 12 12 13 13 13 14 14 13 13 13 13
5 3 1 2 2 1 2 2 1 0 2 4 4 3 3 3 3 4 4 4 3 4 5 4 2 3 2 6 5 6 7 7 6 7 7 7 9 10 9 9 9 8 7 6 5 7 8 9 10 9 9 9 8 9 10 10 8 7 8 8 10 12 14 16 13 9 8 9 10 10 11 12 11 10 10 11 13 13 12 12 12 11 11 12 13 14
4 2 3 3 2 1 2 1 3 4 5 5 3 3 4 3 3 3 3 2 1 5 4 4 2 0 5 8 8 9 10 9 9 9 8 8 9 9 8 8 7 6 6 6 5 5 7 10 10 11 11 9 9 9 9 6 5 6 7 8 11 14 15 12 8 7 8 9 9 10 10 10 9 9 10 11 12 12 10 9 10 11 12 13 14 15
3 4 4 2 2 1 3 1 1 2 3 4 2 3 3 2 4 3 3 2 3 5 3 3 1 2 5 7 8 10 10 8 9 9 8 8 8 8 7 7 6 6 6 5 5 5 6 10 12 13 11 9 10 9 7 5 5 6 7 10 12 13 11 7 4 7 8 7 9 10 9 9 9 8 9 10 10 9 9 10 12 13 13 13 14 14
1 4 2 2 1 1 2 3 3 3 1 1 2 4 3 2 1 2 3 2 4 6 4 1 1 3 3 4 7 8 7 5 6 7 6 6 7 5 5 5 5 6 6 5 5 6 8 12 14 11 10 11 11 9 6 5 5 6 9 11 11 10 8 6 6 7 7 8 9 9 9 9 9 9 9 8 7 9 11 12 12 12 12 12 12 12
0 4 4 1 1 2 1 2 3 4 1 1 2 3 1 2 3 2 3 4 1 4 4 2 3 5 4 7 6 2 5 5 5 6 6 8 8 4 5 6 6 6 6 5 5 6 10 14 12 10 11 12 11 8 6 5 5 7 10 11 10 9 7 7 7 7 8 9 10 10 10 10 10 10 9 8 9 10 10 10 9 10 10 10 11 12
1 4 3 3 2 2 2 3 1 2 1 0 2 1 2 3 5 3 2 2 3 1 3 2 4 5 3 7 6 5 6 7 5 7 8 9 8 5 6 7 7 7 6 6 6 6 10 13 12 12 13 13 10 7 6 5 6 8 10 10 9 8 8 8 8 8 9 9 10 10 10 10 10 9 8 9 9 8 8 10 12 14 14 13 14 16
1 4 4 1 1 2 1 2 1 2 2 3 1 3 2 2 4 3 1 4 4 1 4 2 6 6 3 4 6 4 6 9 8 9 9 9 8 7 9 8 8 8 7 7 7 7 10 12 13 14 14 12 9 7 6 5 6 8 10 10 9 8 7 7 7 8 9 10 10 10 8 9 10 8 7 8 7 8 11 14 15 16 15 15 15 16
2 2 5 1 2 3 2 3 2 4 2 3 2 2 2 1 1 1 0 2 2 3 5 4 6 5 3 4 6 5 7 9 9 8 8 9 9 9 10 9 9 8 6 6 6 6 9 12 14 14 12 10 8 7 6 5 7 8 10 9 8 8 8 7 8 9 11 11 10 9 9 9 8 6 6 7 9 12 13 13 13 13 13 14 15 14
2 1 4 3 2 3 3 1 2 2 1 2 1 1 2 2 3 1 0 2 1 2 4 4 5 4 6 6 5 8 9 8 9 7 7 10 10 8 8 8 8 7 6 6 6 6 9 13 15 13 11 11 9 7 6 6 7 8 8 8 7 8 8 8 8 9 9 8 7 8 9 7 7 7 8 10 12 13 12 12 12 12 12 14 14 13
2 2 3 4 3 2 1 3 5 5 3 1 1 1 1 0 1 0 0 3 3 2 2 3 4 7 7 4 7 11 10 8 9 8 8 9 8 8 8 8 7 7 7 7 7 7 9 13 14 12 11 11 10 7 6 6 6 7 8 7 7 7 7 6 7 7 7 6 7 8 7 7 9 11 12 13 13 13 12 11 12 12 13 14 14 15
1 2 3 3 3 2 4 4 4 6 5 5 3 4 3 2 2 1 3 2 2 3 4 2 4 11 8 3 6 10 8 8 8 8 8 8 8 9 8 8 8 7 7 8 7 7 9 12 13 12 13 12 10 8 7 6 6 7 7 7 7 7 7 7 7 7 6 6 7 8 8 9 12 13 14 13 12 11 11 12 12 13 14 15 16 17
2 3 1 4 5 4 5 3 1 3 3 4 3 3 3 4 5 4 3 3 1 1 2 3 2 10 7 5 6 7 7 7 7 7 8 7 8 9 8 8 8 7 8 8 7 8 11 13 12 13 14 14 12 9 7 7 7 7 7 6 7 8 7 7 7 7 7 8 8 8 8 11 12 12 12 11 11 11 12 13 14 14 16 17 18 17
1 2 1 4 5 3 4 4 2 1 2 1 2 2 4 3 4 5 5 3 2 3 2 2 3 10 7 3 5 5 4 6 6 6 7 7 7 8 8 8 7 8 8 7 7 8 11 12 12 13 15 15 13 10 8 8 8 7 7 7 7 8 7 7 7 7 8 9 9 9 10 12 12 12 11 10 11 13 13 14 15 15 17 18 18 18
1 1 1 2 6 6 5 5 4 3 0 3 3 2 3 4 6 4 2 2 1 5 6 4 5 10 7 1 2 4 5 6 7 7 7 8 8 7 7 7 7 7 7 7 7 7 9 10 11 13 15 16 13 11 9 9 8 8 8 8 8 9 8 8 8 7 8 9 10 11 12 13 13 12 11 11 12 13 13 14 16 17 17 17 17 18
2 2 2 1 2 4 5 4 3 2 2 2 2 3 4 6 8 4 2 3 3 5 6 6 7 11 10 4 3 6 6 8 10 8 7 8 8 8 7 7 7 7 8 9 9 8 8 9 10 13 15 15 14 12 10 10 9 9 8 8 9 9 9 9 8 8 8 9 11 12 12 12 11 10 11 12 12 13 14 15 16 16 16 16 17 18
2 1 3 5 6 7 7 6 2 1 1 5 5 5 6 6 7 5 4 3 5 3 3 9 12 14 19 16 11 11 9 10 12 10 8 8 8 8 7 7 7 7 8 9 8 8 8 8 10 13 16 16 14 13 12 11 10 9 9 9 9 10 9 9 9 9 9 10 11 11 11 11 10 10 11 11 12 13 15 16 16 16 15 16 17 18
3 3 5 7 10 11 9 8 5 2 5 10 9 6 8 8 7 7 7 7 5 4 6 12 10 10 19 18 15 15 14 13 13 12 11 10 9 8 6 7 8 8 8 8 8 9 9 9 9 12 16 16 14 13 13 12 11 10 10 10 10 10 10 10 10 10 10 11 11 11 11 11 10 10 11 11 12 13 14 15 15 15 16 16 17 18
4 4 5 5 8 12 8 9 10 7 7 10 10 9 9 9 11 14 16 11 8 6 13 12 6 9 16 18 18 18 17 15 16 14 11 10 8 7 6 7 9 9 9 9 10 10 11 10 9 11 15 16 15 15 14 13 12 11 10 10 11 11 12 12 11 10 10 11 12 12 11 11 10 10 10 10 12 13 14 14 14 15 16 17 17 18
4 4 4 3 5 12 10 8 9 7 6 9 11 11 11 11 14 16 16 12 9 13 19 18 17 17 18 19 20 19 17 15 14 12 10 11 10 8 8 9 10 10 10 11 11 11 11 10 9 11 14 15 17 17 15 15 14 13 12 12 12 13 14 13 11 10 11 12 12 12 11 11 10 10 9 10 11 12 13 14 14 16 17 18 18 19
2 3 1 3 3 9 7 4 3 5 6 10 15 13 11 10 11 12 12 8 7 13 18 17 17 17 17 17 16 16 15 12 12 12 11 12 11 9 9 10 11 11 11 11 11 11 10 10 9 11 14 16 19 19 17 16 15 13 13 13 14 15 15 13 12 12 12 12 12 11 11 11 11 10 9 9 11 12 13 14 15 16 17 18 19 20
2 2 2 5 3 7 4 5 7 7 7 11 17 15 9 8 7 8 7 6 8 10 11 9 8 11 14 11 8 11 12 11 14 15 12 11 10 8 10 12 12 11 11 11 11 10 10 10 10 11 15 18 20 20 19 17 15 15 15 15 16 17 16 14 13 13 13 12 12 12 12 12 11 9 9 10 10 12 13 15 15 16 17 19 20 20
3 1 1 2 2 6 4 5 7 9 8 8 10 7 6 6 6 5 5 8 10 7 4 5 7 11 11 10 11 13 13 13 15 13 10 11 11 9 10 12 12 12 11 10 10 11 11 11 13 16 19 20 21 21 20 18 17 17 17 16 17 17 16 15 14 14 14 13 12 13 13 12 11 10 10 10 11 12 14 16 17 17 17 18 19 19
3 4 1 1 1 5 7 7 6 5 4 6 5 5 4 3 6 7 9 10 8 7 6 8 10 13 14 14 15 16 16 14 13 12 11 11 10 10 12 13 12 12 10 9 10 11 10 12 15 19 21 21 22 21 19 18 17 17 16 17 18 19 17 16 15 15 15 14 14 14 14 13 13 12 11 12 12 14 15 16 17 17 17 17 18 19
4 3 2 1 1 4 5 6 5 3 6 8 6 1 2 2 5 8 11 13 10 10 11 13 15 17 17 15 15 16 16 13 10 11 14 13 10 11 14 14 13 11 10 10 10 10 11 13 16 18 21 22 22 21 19 19 18 17 17 19 20 20 18 17 16 16 16 16 16 15 15 14 14 13 13 13 13 15 15 16 17 17 17 17 17 19
6 4 2 1 2 3 3 2 1 5 9 11 7 2 1 2 2 1 7 12 11 9 10 12 16 17 16 15 15 15 12 9 7 10 15 15 13 12 13 15 14 11 11 11 11 12 15 19 21 22 23 24 23 22 21 20 19 18 19 21 21 21 19 18 17 18 18 18 18 17 16 15 15 15 14 14 14 15 15 16 17 18 18 18 18 19
6 4 1 1 2 1 1 2 4 7 11 9 4 2 1 1 1 1 2 9 12 8 8 10 13 15 14 14 16 13 8 8 9 11 12 13 14 14 15 15 14 11 11 13 16 18 21 24 24 24 24 23 23 23 23 21 20 20 21 22 22 22 20 19 19 20 20 20 20 18 17 17 16 15 15 15 15 16 16 16 17 18 18 18 19 19
4 3 3 2 1 1 1 3 4 5 6 5 2 3 4 3 4 4 1 7 11 8 7 8 10 14 14 15 16 13 9 10 13 13 11 10 11 12 12 13 12 12 13 15 17 18 21 23 23 23 23 23 24 25 24 22 22 22 23 24 24 23 22 21 22 22 22 22 21 19 18 18 17 17 17 16 16 16 16 17 18 18 17 18 19 20
4 2 4 2 2 1 2 1 2 3 6 4 2 5 5 3 3 3 2 6 8 6 4 5 8 14 15 16 17 11 8 12 14 13 14 11 7 8 9 10 10 12 16 19 19 21 23 24 23 22 23 24 25 27 25 23 24 24 25 26 25 24 24 24 25 24 23 23 21 20 19 19 18 18 17 17 17 16 17 17 18 17 17 17 18 20
4 4 3 1 3 1 2 2 3 5 7 5 4 5 5 2 1 3 6 7 7 10 8 5 10 15 15 15 14 9 7 10 13 16 20 17 9 7 9 10 10 12 16 20 22 24 24 24 23 23 25 28 29 28 26 25 25 26 27 26 25 25 27 28 27 24 23 22 21 20 20 19 19 19 18 18 17 17 17 17 17 16 16 16 17 19
1 0 1 2 3 3 3 3 4 5 7 6 5 5 4 2 2 4 7 9 12 17 15 11 13 16 15 13 11 8 9 13 15 19 23 21 17 14 12 13 15 17 19 22 24 24 23 24 27 29 31 33 31 28 27 27 28 29 28 25 25 28 30 29 26 23 22 22 21 21 20 20 20 19 18 17 17 17 17 16 15 15 15 16 17 18
1 1 0 2 2 2 3 3 3 6 5 4 2 3 2 3 5 6 8 12 15 17 17 15 15 15 15 15 12 11 14 17 18 20 21 20 20 19 15 12 13 16 19 20 22 24 24 24 26 30 32 33 31 29 29 29 30 31 29 26 29 32 31 27 24 23 22 22 22 22 22 21 20 19 18 17 17 17 17 16 14 14 13 14 16 18
3 3 2 3 3 2 1 0 2 5 5 3 2 2 1 1 7 10 11 13 14 14 15 15 14 14 15 16 16 16 18 20 20 19 19 20 19 19 17 12 11 14 17 18 21 26 26 24 25 30 32 33 32 31 30 31 32 32 30 31 34 32 27 25 24 23 23 23 23 23 22 21 20 18 17 17 17 17 17 16 14 12 12 13 15 17
4 4 2 3 3 2 1 2 3 5 5 3 2 3 5 5 8 10 10 12 13 12 11 12 13 14 14 15 18 19 18 19 21 20 19 20 20 18 17 13 12 14 17 20 24 27 28 26 27 29 30 31 33 33 33 34 34 31 31 35 35 29 25 25 24 23 24 25 24 24 23 22 20 19 17 17 16 16 16 15 13 12 12 12 13 16
4 5 3 3 4 3 4 7 6 7 7 2 4 6 10 11 10 10 9 11 11 10 10 11 14 16 16 15 17 18 17 17 20 21 20 19 20 19 18 17 15 16 19 21 23 26 29 30 29 28 28 30 33 35 36 36 35 32 34 37 32 27 26 25 23 24 26 26 25 25 23 22 20 19 18 17 16 16 16 15 13 12 12 12 13 15
3 2 2 1 4 4 5 6 6 7 10 8 5 6 8 8 8 9 10 10 11 11 11 11 13 16 16 16 16 17 17 18 20 21 20 19 19 19 18 18 18 18 19 20 22 26 29 28 26 26 27 29 32 35 37 38 38 38 38 35 29 26 26 25 24 26 27 26 26 25 23 22 21 19 18 17 15 16 15 14 13 12 12 12 13 14
2 1 0 2 3 3 4 7 7 9 12 14 11 8 8 8 8 9 10 11 12 13 13 12 14 15 16 16 16 17 19 19 19 19 19 18 18 19 18 18 19 19 18 21 25 27 25 23 23 25 26 28 32 35 36 38 41 42 39 32 27 26 25 24 26 27 27 27 26 24 23 23 21 20 19 17 15 15 15 14 13 14 14 14 14 14
2 3 3 3 3 4 7 10 10 11 12 11 9 9 11 13 13 13 12 12 13 15 16 15 15 14 14 15 17 18 20 19 18 18 18 17 17 18 18 18 20 22 22 24 27 25 23 23 25 26 27 29 33 35 36 38 41 41 38 33 30 26 25 25 26 27 27 27 26 25 24 23 21 20 19 17 15 15 15 15 15 15 16 15 14 15
2 3 3 2 4 6 7 10 12 12 11 9 10 12 13 14 15 16 16 15 16 16 17 18 18 16 14 14 14 16 19 20 18 18 19 17 16 17 18 21 25 27 26 26 27 26 25 27 28 28 29 32 33 33 34 38 41 40 37 35 32 28 26 26 26 26 27 26 25 25 24 23 22 20 18 16 16 15 16 16 15 15 16 15 14 14
4 4 3 3 5 6 8 10 12 11 11 11 13 15 15 14 14 15 16 17 18 17 17 19 21 20 19 18 15 13 15 18 19 19 18 17 16 17 20 24 26 28 29 29 27 25 26 29 31 30 30 33 32 30 32 37 39 38 37 36 33 31 29 28 27 26 26 26 25 25 24 23 22 21 18 17 16 15 15 15 14 14 15 15 14 14
2 3 4 4 5 8 10 11 9 8 9 12 14 16 14 12 12 14 16 17 17 17 16 17 19 20 20 21 22 19 14 15 18 19 17 16 19 22 24 25 25 25 29 31 26 22 25 29 31 29 31 34 33 30 32 35 36 37 38 36 34 33 31 29 28 27 26 25 26 25 24 23 22 20 18 17 15 14 14 14 13 13 14 15 15 15
Wind_Direction
72 66 48 124 219 264 243 179 148 219 184 169 151 180 235 256 271 270 269 278 330 347 278 231 216 231 215 221 225 194 176 186 193 192 202 209 210 213 212 218 218 217 228 222 218 225 228 219 221 262 307 329 336 325 303 307 320 328 335 341 342 341 339 338 337 335 339 347 351 351 350 347 343 340 335 333 334 332 330 329 321 309 299 295 279 249
60 78 121 220 214 228 216 125 29 355 141 139 155 218 290 270 271 287 275 280 354 27 283 275 282 262 232 216 220 185 179 202 199 194 205 207 211 218 213 219 222 225 232 220 222 232 222 215 241 281 304 318 325 313 298 307 327 337 342 344 342 339 335 335 335 333 339 348 349 348 349 346 344 342 337 334 336 335 335 339 338 327 309 302 284 245
41 79 232 238 210 121 69 62 36 34 109 102 130 145 303 275 289 305 298 310 10 35 290 313 311 269 244 213 221 204 198 220 212 201 205 203 207 217 215 220 224 229 236 226 235 239 226 230 256 280 295 305 318 303 280 309 336 340 341 341 338 334 330 330 331 333 340 343 342 342 344 345 344 341 340 336 335 339 347 352 355 350 333 317 297 256
57 240 230 230 121 101 59 24 35 43 64 95 133 135 281 278 8 291 296 337 339 229 255 305 309 281 267 213 243 237 220 250 245 220 220 210 208 212 215 219 218 221 227 229 243 244 229 233 257 271 282 296 308 273 257 317 336 336 337 335 331 327 324 326 332 336 338 338 337 339 339 342 344 343 341 341 342 347 352 353 357 1 353 341 327 301
135 242 165 70 60 103 104 14 41 58 3 303 178 181 266 274 224 226 283 331 331 304 241 316 325 300 315 229 253 261 259 272 261 232 235 232 225 224 227 226 220 219 220 224 241 243 229 237 258 263 270 287 272 236 266 322 333 332 331 327 321 318 318 322 329 333 335 334 335 339 342 344 346 346 345 345 348 350 348 345 344 351 354 353 351 347
134 278 87 72 45 64 105 45 97 124 0 319 230 210 238 262 253 249 306 343 358 351 311 45 13 297 299 251 249 256 259 258 251 238 240 236 235 235 234 231 226 225 223 226 234 232 232 246 255 253 255 255 231 240 292 320 328 327 323 317 311 310 314 320 326 330 331 333 336 343 349 354 356 352 347 343 341 341 340 337 335 337 341 347 352 354
225 353 37 108 78 51 65 88 211 137 77 347 214 190 215 253 269 273 291 10 14 288 288 72 117 265 305 279 260 258 243 253 261 254 246 238 236 233 230 229 226 228 228 230 232 227 233 246 245 241 237 227 230 261 298 314 323 323 315 307 304 310 317 319 321 323 324 329 333 337 343 355 359 349 341 334 329 329 330 327 328 330 331 334 341 343
200 0 29 66 70 53 46 353 219 139 96 267 220 118 270 282 277 262 191 172 228 270 312 17 136 234 294 276 284 317 252 264 267 257 250 238 235 235 235 236 230 227 222 219 229 229 234 243 240 231 221 221 243 274 295 312 321 318 309 304 308 315 317 317 317 315 316 320 319 317 325 337 343 339 331 326 323 321 321 319 318 322 324 326 331 334
98 345 21 88 67 49 37 256 205 146 120 260 257 329 303 287 263 210 152 172 251 13 324 309 116 191 273 273 348 24 272 273 265 254 249 238 233 234 236 239 236 231 220 214 221 228 237 244 234 218 214 229 253 278 297 314 320 317 312 310 314 317 315 314 314 312 310 310 307 307 318 327 331 330 324 321 320 317 317 315 314 317 319 320 325 328
65 248 197 124 90 330 251 246 190 161 244 281 299 322 344 22 17 119 125 142 57 30 266 251 133 111 276 274 334 37 258 258 256 253 250 238 232 232 235 240 238 230 224 220 221 228 239 240 219 210 219 239 260 282 302 315 315 314 316 316 319 319 316 318 316 311 305 302 306 313 323 329 330 329 324 319 317 318 318 315 314 318 320 321 326 329
331 307 198 121 134 201 254 267 191 184 252 320 348 343 16 36 26 55 81 93 65 332 255 229 173 111 301 280 235 201 222 222 234 255 257 243 236 234 236 241 236 226 223 221 227 235 236 219 203 209 226 244 267 288 301 308 307 311 319 324 327 323 322 324 317 304 298 306 318 324 328 330 330 328 323 317 316 318 318 315 316 321 325 328 330 330
338 344 258 282 236 149 21 327 214 45 344 21 20 354 10 354 4 18 356 41 65 286 253 224 223 120 218 269 242 232 242 219 216 241 241 234 236 237 237 238 231 222 220 218 229 234 214 192 194 210 230 250 271 283 292 297 298 308 318 325 328 325 327 325 311 294 306 323 327 327 329 330 327 324 320 314 311 311 312 314 319 327 330 329 327 326
319 270 281 316 284 124 69 337 326 355 16 36 38 38 36 357 4 8 332 9 233 263 229 197 296 131 224 255 258 257 259 236 221 224 221 219 227 236 237 235 229 217 217 222 224 220 200 192 201 217 234 252 265 271 277 278 281 297 310 324 328 328 331 327 307 308 328 331 329 331 333 332 325 317 315 310 306 306 312 321 330 331 330 326 323 322
327 301 315 341 300 95 109 136 311 330 7 20 52 83 72 42 18 323 292 329 280 275 249 187 225 280 271 274 246 244 256 243 226 221 218 218 223 233 237 232 229 221 220 224 215 205 198 201 211 223 236 251 255 255 255 256 275 298 316 331 334 331 331 328 322 331 333 329 329 332 332 330 324 316 314 312 307 308 318 327 329 325 322 319 317 317
335 303 283 173 252 35 109 172 171 153 82 315 166 123 108 133 121 259 248 252 280 294 290 235 166 207 260 272 222 227 265 268 241 233 237 247 242 245 255 246 234 232 230 224 212 203 203 206 213 225 238 244 242 239 241 258 284 311 329 334 332 328 324 320 328 332 328 325 325 323 322 322 319 313 309 305 303 309 318 322 322 321 320 319 317 316
231 271 261 273 286 106 122 222 137 111 103 246 146 93 65 177 152 170 214 206 240 326 295 260 227 208 231 268 257 282 301 283 261 255 258 263 259 253 259 249 234 236 236 218 209 207 206 208 214 228 236 235 230 230 243 269 296 319 331 332 328 321 314 317 325 326 321 321 319 317 315 313 311 306 299 301 308 311 314 317 316 315 314 314 314 314
0 285 286 340 348 112 165 221 115 79 172 108 68 138 224 163 123 114 281 312 65 22 280 280 274 281 317 295 304 2 314 284 271 259 252 254 257 251 247 245 236 237 235 216 209 208 206 208 218 229 229 226 225 233 250 275 303 319 329 329 323 314 307 314 320 320 320 319 317 316 312 312 312 304 299 312 316 310 307 308 308 308 308 307 307 309
146 287 292 5 252 261 180 157 15 354 135 110 161 212 184 83 83 98 311 345 38 258 273 308 282 292 345 305 313 344 292 275 265 253 253 257 256 248 244 243 239 236 229 217 210 206 206 209 220 225 223 224 230 240 253 278 301 316 326 326 317 307 305 310 311 312 316 316 315 312 306 308 310 303 309 319 313 308 312 311 310 310 309 306 306 307
127 290 299 297 210 287 11 73 342 327 63 111 187 185 90 79 305 38 37 333 359 290 285 301 289 280 219 234 284 288 259 263 267 259 257 254 244 240 244 243 240 236 225 216 211 207 208 212 219 221 220 223 227 234 249 278 298 311 322 322 309 300 299 302 303 309 314 313 310 306 304 307 307 310 323 319 310 314 317 313 310 308 304 303 305 305
104 135 286 296 249 302 6 75 239 285 12 51 61 24 35 147 178 184 157 166 190 278 289 313 321 283 229 209 233 260 258 256 263 264 253 247 238 233 237 237 233 226 217 214 212 211 210 212 219 222 221 220 220 230 249 270 290 304 315 314 299 290 293 299 305 314 315 309 303 302 302 301 301 310 317 313 312 315 313 308 305 303 302 303 304 303
71 142 250 300 320 309 282 214 197 186 170 119 90 270 311 97 142 233 252 142 145 186 246 297 310 278 258 208 214 251 263 252 247 250 248 244 238 233 230 229 228 223 221 219 214 212 209 212 219 222 220 217 217 227 243 261 281 296 306 305 287 279 286 291 300 310 307 298 300 299 295 293 301 309 312 312 312 309 307 306 305 302 302 302 301 301
140 162 215 289 309 247 239 240 190 177 169 154 177 200 185 154 118 61 298 286 122 163 192 182 288 278 268 192 212 243 251 248 238 232 242 244 234 236 234 227 224 220 220 217 212 209 205 209 216 216 211 210 213 223 237 255 271 284 294 291 273 271 278 281 293 302 293 291 296 290 286 294 304 310 311 311 308 306 306 306 304 303 300 299 299 299
158 112 138 268 261 234 253 285 119 171 165 143 181 186 147 135 127 138 233 255 204 192 186 123 250 272 259 175 200 231 233 248 239 214 232 247 238 237 237 230 224 220 222 214 209 207 203 208 215 213 208 209 215 225 239 251 259 272 282 275 266 272 274 277 292 296 283 284 286 280 285 296 304 310 309 307 304 303 306 304 301 299 297 297 298 299
118 93 78 278 288 303 306 325 15 54 105 154 231 164 141 156 143 154 181 184 201 211 175 116 247 268 269 198 209 241 251 266 256 222 234 249 250 242 234 229 221 219 222 213 207 206 203 209 212 207 207 210 216 226 236 244 250 262 271 267 266 269 267 273 288 289 280 281 279 276 286 296 304 307 305 300 300 302 303 300 298 297 297 299 301 302
251 170 102 328 326 336 344 347 343 335 196 218 241 178 150 120 104 120 141 101 263 218 168 157 246 263 270 152 187 273 285 275 259 240 237 246 253 248 233 225 218 216 218 211 209 209 205 208 208 207 210 212 218 227 233 239 247 255 264 268 266 262 262 273 283 281 277 278 278 281 289 299 304 304 298 296 299 301 299 297 298 299 300 302 303 303
225 193 142 132 289 291 295 298 287 272 237 226 213 184 175 140 135 156 130 107 246 227 160 169 240 268 281 298 307 289 280 276 273 262 249 248 254 252 237 221 214 213 215 212 210 211 209 212 212 212 214 215 219 226 230 236 244 255 266 267 261 258 262 272 275 272 275 278 279 282 290 297 299 297 295 296 298 297 297 299 300 300 301 302 301 300
97 228 208 189 207 231 248 255 232 112 284 264 241 204 197 184 159 132 110 175 204 175 190 224 238 273 287 288 296 297 287 283 286 287 280 270 266 258 239 222 216 215 216 216 214 214 215 216 216 214 214 215 219 226 232 237 242 252 260 259 255 257 261 264 264 268 275 276 275 278 285 290 291 291 293 295 295 295 298 300 300 299 299 299 299 299
89 289 243 206 229 246 255 272 286 309 267 261 254 222 201 192 164 156 196 212 156 118 259 249 219 247 277 283 293 298 296 295 294 293 291 286 277 264 237 219 222 222 221 219 215 216 218 218 217 213 212 214 218 224 230 235 242 251 257 256 254 253 253 254 256 266 272 268 267 273 279 283 284 287 291 291 291 294 298 300 298 297 297 298 299 300
125 258 242 194 250 266 264 268 269 264 258 259 255 238 217 195 179 196 220 212 157 192 255 264 240 244 270 284 291 291 293 294 292 291 291 288 276 254 226 222 226 225 224 223 222 220 219 219 215 209 210 212 215 221 226 231 239 246 250 252 252 248 246 247 252 261 262 256 261 270 274 276 280 284 287 287 289 293 296 297 296 295 297 300 302 304
148 247 246 174 282 285 273 261 256 251 259 268 259 240 223 211 199 211 230 221 198 232 254 267 275 274 275 279 282 285 287 287 287 289 288 282 273 248 229 232 234 230 225 223 224 221 217 217 213 208 209 211 213 219 224 229 235 242 246 250 249 242 238 240 247 254 251 251 259 265 266 271 278 281 280 282 287 292 293 293 295 296 299 302 305 308
191 262 251 103 317 288 285 308 284 243 247 271 274 257 228 219 216 223 239 232 218 245 256 266 278 280 275 271 270 276 281 285 287 285 280 275 268 252 242 241 238 237 233 227 227 224 218 216 211 208 209 212 216 220 224 229 235 240 244 246 241 234 231 235 243 246 246 252 257 255 257 268 275 274 273 278 284 287 289 292 294 296 298 302 306 310
188 272 358 55 344 279 292 2 331 301 287 279 280 273 237 204 210 224 229 205 197 230 258 278 282 271 270 274 270 267 272 280 283 282 282 278 267 249 245 251 246 239 234 229 225 220 215 214 209 208 212 215 218 220 223 227 231 234 239 240 234 229 229 233 239 241 245 250 249 246 253 265 269 265 265 273 279 283 287 291 294 296 298 302 308 310
153 158 23 53 311 272 291 342 327 323 322 289 269 250 194 184 213 239 247 218 199 204 251 263 253 263 280 294 292 285 284 282 281 284 287 283 278 261 249 253 254 248 238 230 225 220 217 215 211 211 215 217 219 222 225 227 228 232 237 236 229 225 227 232 236 239 243 243 239 242 252 260 261 258 261 268 274 280 287 290 293 296 298 302 306 307
130 122 162 180 234 270 295 326 329 328 306 273 245 177 168 221 225 231 260 254 214 192 222 249 264 277 285 286 285 285 283 280 283 288 284 277 275 274 266 259 255 251 242 230 225 220 215 214 214 215 218 221 223 225 228 228 230 236 237 231 225 225 227 232 235 236 238 237 236 240 249 256 256 253 257 265 272 279 285 289 291 294 297 300 303 304
135 132 204 200 195 265 305 352 346 274 235 261 281 230 228 260 198 213 261 272 248 221 233 256 268 270 272 275 276 277 279 282 289 288 282 273 260 261 268 268 260 248 240 232 226 223 217 212 212 213 216 221 224 223 223 225 228 231 229 224 222 224 227 231 234 234 235 234 235 240 246 252 252 252 256 263 270 277 282 285 288 293 297 299 300 302
146 149 196 187 189 275 329 39 277 274 282 296 323 15 69 53 90 240 288 280 263 234 227 246 258 262 269 276 275 278 286 296 295 276 271 269 258 248 252 260 256 242 232 226 219 216 214 212 212 215 217 220 221 219 220 225 226 224 222 220 221 223 227 231 232 232 232 231 234 240 244 247 250 251 254 260 268 275 279 282 287 292 296 298 300 302
138 139 189 251 214 211 258 243 262 315 319 317 343 25 353 32 109 139 293 284 276 250 223 241 261 269 275 280 283 292 309 315 301 284 272 263 252 242 240 246 249 242 230 225 222 220 219 217 218 221 220 218 218 219 221 223 223 220 219 219 221 224 227 229 230 229 229 230 234 239 242 243 246 249 253 259 267 272 275 280 286 291 295 298 299 300
117 146 169 203 251 105 56 298 320 345 314 281 276 284 280 250 189 149 126 287 283 272 242 240 261 277 287 295 299 309 329 318 302 297 294 277 251 242 244 243 244 241 230 223 220 218 218 218 218 219 218 216 218 222 223 221 219 217 217 218 220 223 225 227 229 229 229 231 235 239 239 241 244 247 253 260 264 267 271 278 284 289 293 295 296 297
47 39 110 139 291 28 91 245 274 274 261 255 267 272 269 243 190 114 32 280 275 293 279 243 270 291 300 303 306 318 330 311 300 300 308 304 269 242 248 248 243 237 233 226 218 214 216 216 215 215 214 213 218 222 221 219 216 214 215 218 220 222 224 227 229 229 231 232 235 237 238 239 242 247 255 261 261 263 270 277 282 286 291 294 294 296
32 19 70 183 256 220 141 229 249 247 257 279 292 266 262 245 146 29 337 294 302 328 328 301 296 301 303 303 307 312 299 290 292 299 307 310 294 254 247 248 242 233 228 225 220 218 218 214 208 208 208 212 219 222 218 216 215 214 216 220 220 222 226 230 232 233 234 234 234 235 236 236 240 247 255 259 259 263 269 275 280 284 288 292 294 297
57 27 135 189 224 202 192 235 266 260 260 275 282 264 263 298 15 358 319 310 324 329 326 321 310 305 305 306 306 300 282 279 283 291 300 305 301 288 270 251 244 238 230 225 222 219 215 211 210 211 215 219 221 219 215 213 211 215 219 220 221 227 232 234 235 235 233 232 232 232 233 234 240 248 255 256 258 265 269 270 275 280 285 291 295 297
176 172 180 182 205 200 185 211 280 288 263 228 223 252 283 333 331 318 309 315 322 319 318 320 314 310 312 309 304 298 292 291 291 293 298 300 298 297 289 264 246 243 236 228 224 218 212 210 212 215 220 222 219 216 214 211 211 217 219 219 225 233 237 236 235 234 230 228 229 230 231 234 240 247 253 254 257 264 266 266 269 273 280 288 293 296
182 179 230 210 190 166 119 115 312 292 255 174 109 341 295 304 311 310 310 315 315 313 315 317 313 314 317 312 309 307 303 302 303 303 303 302 299 300 297 275 247 243 237 227 223 219 212 211 214 216 219 220 217 216 213 209 213 217 218 223 233 238 237 235 235 232 227 225 227 230 232 235 240 246 250 252 256 260 263 264 263 265 273 284 290 294
194 186 241 254 208 145 145 214 232 271 261 180 131 297 274 271 298 310 313 311 311 313 315 313 312 315 315 311 310 310 309 310 310 310 310 309 307 307 304 288 260 247 240 231 227 221 214 214 217 219 220 218 216 216 214 212 215 216 219 230 238 237 233 233 233 228 225 225 226 230 233 236 241 246 249 250 253 256 258 259 258 260 268 279 286 288
218 197 198 233 228 215 230 236 249 289 296 235 184 248 278 291 300 304 303 302 308 315 317 315 314 314 316 316 313 312 313 314 313 313 314 312 311 311 309 301 282 260 247 241 235 226 218 219 221 219 219 219 217 216 216 217 215 216 224 235 237 232 229 229 227 225 224 225 226 230 234 237 241 246 250 249 249 251 252 251 253 258 266 274 280 281
253 189 151 220 267 274 264 266 286 308 306 304 284 265 277 290 298 305 308 308 311 313 312 314 313 313 318 321 317 314 315 316 316 315 314 314 314 313 312 309 296 275 256 246 240 232 224 223 225 223 221 222 219 216 217 218 217 221 230 235 233 229 228 226 222 224 225 226 228 230 233 237 241 246 250 250 245 243 243 244 250 258 265 269 272 275
307 13 252 255 285 314 299 296 313 313 304 309 317 312 305 306 310 316 317 312 313 314 314 316 316 315 317 319 318 315 314 315 318 316 315 317 317 316 316 315 308 295 273 255 248 241 229 222 225 226 224 224 221 218 217 218 220 226 232 233 229 228 227 223 221 223 224 226 229 231 233 236 240 245 250 250 242 235 236 240 248 256 259 260 263 266
315 347 318 275 278 286 277 283 297 296 290 298 316 323 324 324 323 323 320 315 316 317 316 316 318 318 319 319 320 316 313 315 318 317 316 318 319 318 318 316 314 309 294 274 262 249 230 224 228 228 226 228 226 221 218 219 223 227 228 227 228 227 223 222 222 223 224 227 230 232 233 236 239 244 249 249 240 234 235 239 244 251 253 254 256 258
318 327 303 302 304 287 283 300 315 312 301 306 325 328 325 324 323 321 320 319 319 318 317 318 319 319 317 315 315 315 314 316 318 319 319 319 319 319 319 317 317 315 306 291 274 254 237 233 234 233 231 233 231 224 220 221 225 226 224 224 225 223 220 221 222 223 225 228 229 232 234 236 239 243 247 247 242 240 241 242 243 250 255 255 254 255
352 335 320 348 334 311 307 319 327 323 310 312 322 322 318 316 316 315 316 318 319 319 319 319 318 318 318 318 318 315 313 314 317 319 318 317 318 319 318 316 316 314 310 302 285 262 247 242 241 239 239 240 237 229 223 224 225 224 222 222 222 220 219 220 220 221 224 225 227 230 233 235 238 242 245 245 245 247 249 247 243 248 257 261 259 255
2 341 345 345 313 294 297 307 315 310 297 300 309 311 311 313 315 315 316 317 315 316 319 319 318 320 321 322 323 321 316 313 315 316 316 315 315 315 315 315 315 313 311 307 295 271 257 251 247 244 245 245 241 233 227 226 224 221 220 220 219 219 219 218 216 217 221 223 225 228 230 233 238 242 243 243 246 250 254 256 252 245 247 255 261 258